Flag for South Africa Weather past 2 weeks in Vereeniging, South Africa

Now
43 °F

Quite cool.


Feels Like: N/A
Forecast: 35 / 67 °F
Wind: N/A

Location: Vereeniging

Current Time: Jul 8, 2015 at 8:59:27 AM

Latest Report: Jul 8, 2015 at 8:00 AM


Visibility: N/A

Pressure: 30.45 "Hg (25.52 "Hg at 1443m altitude)

Humidity: 87%

Dew point: 39 °F

Location of VereenigingLocation

Historic Weather in Vereeniging — Graph

°F

Vereeniging temperature yesterday

Maximum temperature yesterday: 64 °F (at 2:00 PM)
Minimum temperature yesterday: 43 °F (at 6:00 AM)
Average temperature yesterday: 52 °F

Past Weeks' High & Low Weather Summary

 TemperatureHumidityPressure
High72 °F (Jul 6, 3:00 PM)100% (Jun 29, 5:00 AM)30.60 "Hg (Jun 29, 5:00 AM)
Low32 °F (Jun 24, 4:00 AM)14% (Jul 6, 3:00 PM)30.21 "Hg (Jun 24, 5:00 PM)
Average51 °F54%30.38 "Hg
* Reported Jun 23 8:00 AM — Jul 8 8:00 AM, Vereeniging, Weather by CustomWeather, © 2015

Note: Actual official high and low records may vary slightly from our data, if they occured in-between our weather recording intervals... More about our weather records

Advertising

Vereeniging weather history for previous 24 hours

 ConditionsComfort  
Time TempWeatherWind HumidityBarometerVisibility
8:00 AM
Wed, Jul 8
43 °FQuite cool.N/A87%30.45 "HgN/A
7:00 AM41 °FQuite cool.N/A87%30.45 "HgN/A
6:00 AM39 °FChilly.N/A87%30.42 "HgN/A
5:00 AM46 °FCool.N/A76%30.42 "HgN/A
4:00 AM50 °FCool.N/A67%30.45 "HgN/A
3:00 AM50 °FCool.N/A71%30.45 "HgN/A
1:00 AM48 °FCool.N/A76%30.48 "HgN/A
12:00 AM48 °FCool.N/A71%30.48 "HgN/A
11:00 PM
Tue, Jul 7
46 °FCool.N/A76%30.51 "HgN/A
10:00 PM45 °FQuite cool.N/A71%30.51 "HgN/A
9:00 PM48 °FCool.N/A66%30.51 "HgN/A
8:00 PM50 °FCool.N/A62%30.51 "HgN/A
7:00 PM52 °FCool.N/A54%30.48 "HgN/A
6:00 PM54 °FCool.N/A47%30.48 "HgN/A
5:00 PM59 °FRefreshingly cool.N/A39%30.48 "HgN/A
4:00 PM63 °FMild.N/A32%30.45 "HgN/A
3:00 PM64 °FMild.N/A32%30.48 "HgN/A
2:00 PM64 °FMild.N/A34%30.48 "HgN/A
1:00 PM61 °FRefreshingly cool.N/A39%30.54 "HgN/A
12:00 PM61 °FRefreshingly cool.N/A42%30.57 "HgN/A
11:00 AM57 °FRefreshingly cool.N/A51%30.57 "HgN/A
10:00 AM54 °FCool.N/A58%30.60 "HgN/A
9:00 AM48 °FCool.N/A76%30.60 "HgN/A
8:00 AM45 °FQuite cool.N/A87%30.60 "HgN/A
Weather by CustomWeather, © 2015

See weather overviewHow to use our weather pages